Location: Bruderhein
(53.8035°N, 112.9265°W)
Time: 07:23:35
(UTC+00:00)

Cosmos 1503 - Visible Passes

Search period start: 06 December 2023 00:00
Search period end: 16 December 2023 00:00
Orbit: 773 x 793 km, 74.0° (Epoch: 05 December)

Date Brightness Start Highest point End Pass type
(mag) Time Alt. Az. Time Alt. Az. Time Alt. Az.
06 Dec 8.2 10:35:30 15° NE 10:35:30 15° NE 10:37:27 10° ENE visible
06 Dec 6.3 12:16:06 34° N 12:18:02 50° NE 12:23:15 10° SE visible
06 Dec 6.2 13:56:43 16° NW 14:00:17 34° WSW 14:05:06 10° SSW visible
07 Dec 6.8 11:44:44 36° NE 11:45:21 37° NE 11:50:20 10° ESE visible
07 Dec 5.8 13:25:21 27° NW 13:27:55 48° WSW 13:33:04 10° S visible
08 Dec 7.4 11:13:24 28° ENE 11:13:24 28° ENE 11:17:15 10° ESE visible
08 Dec 5.5 12:54:02 47° NW 12:55:29 69° WSW 13:00:49 10° SSE visible
08 Dec 7.3 14:34:40 10° WNW 14:36:52 13° W 14:39:11 10° WSW visible
09 Dec 8.1 10:42:11 17° ENE 10:42:11 17° ENE 10:43:59 10° E visible
09 Dec 5.4 12:22:48 84° N 12:22:58 87° ENE 12:28:22 10° SSE visible
09 Dec 6.9 14:03:27 17° WNW 14:04:41 19° W 14:08:18 10° SW visible
10 Dec 6.3 11:51:40 49° ESE 11:51:40 49° ESE 11:55:45 10° SE visible
10 Dec 6.5 13:32:18 26° W 13:32:25 26° W 13:36:49 10° SSW visible
11 Dec 7.5 02:31:46 10° S 02:32:53 16° S 02:32:53 16° S visible
11 Dec 7.4 11:20:37 25° ESE 11:20:37 25° ESE 11:22:57 10° SE visible
11 Dec 6.4 13:01:15 33° SW 13:01:15 33° SW 13:04:59 10° S visible
12 Dec 7.0 01:59:40 10° S 02:01:56 23° SSE 02:01:56 23° SSE visible
12 Dec 8.0 03:41:46 10° SW 03:42:34 14° SW 03:42:34 14° SW visible
12 Dec 8.3 10:49:37 12° ESE 10:49:37 12° ESE 10:49:59 10° ESE visible
12 Dec 6.8 12:30:16 28° S 12:30:16 28° S 12:32:54 10° S visible
13 Dec 6.7 01:27:49 10° SSE 01:30:55 24° ESE 01:30:55 24° ESE visible
13 Dec 7.1 03:08:57 10° SW 03:11:33 29° SW 03:11:33 29° SW visible
13 Dec 7.6 11:59:21 17° SSE 11:59:21 17° SSE 12:00:36 10° SSE visible
14 Dec 6.9 00:56:18 10° SE 00:59:49 19° E 00:59:49 19° E visible
14 Dec 6.0 02:36:19 10° SSW 02:40:27 55° SW 02:40:27 55° SW visible
14 Dec 8.4 04:20:44 10° W 04:21:05 11° W 04:21:05 11° W visible
15 Dec 7.2 00:25:21 10° ESE 00:27:44 13° E 00:28:38 13° E visible
15 Dec 5.4 02:03:51 10° SSW 02:09:08 70° ESE 02:09:15 70° E visible
15 Dec 7.8 03:47:28 10° WSW 03:49:53 21° W 03:49:53 21° W visible
